CRE (WAAS/PRN 138)

Last updated on Mon Apr 28 2025 00:03:18 GMT+0000 (Coordinated Universal Time)

1 28868U 05036A 25117.50848457 -.00000070 00000+0 00000+0 0 9999 2 28868 3.2454 81.7447 0003203 328.4728 241.2835 1.00271293 42281

Satellite not in orbit

CRE (WAAS/PRN 138)